QPF
0.04 0.06 0.05 0.04 0.03 0.01 0.01 0.01 0.01 0.01 0.00 0.00 0.00 0.00 0.00 0.00 0.00 0.00 0.00 0.00 0.00 0.00 0.00 0.00 0.00 0.00 0.00 0.00 0.00 0.00 0.00 0.00 0.00 0.00 0.00 0.00 0.00 0.00
0.04 0.05 0.04 0.03 0.03 0.02 0.01 0.00 0.00 0.00 0.00 0.00 0.00 0.00 0.00 0.00 0.00 0.00 0.00 0.00 0.00 0.00 0.00 0.00 0.00 0.00 0.00 0.00 0.00 0.00 0.00 0.00 0.00 0.00 0.00 0.00 0.00 0.00
0.05 0.04 0.03 0.02 0.02 0.02 0.02 0.01 0.00 0.00 0.00 0.00 0.00 0.00 0.00 0.00 0.00 0.00 0.00 0.00 0.00 0.00 0.00 0.00 0.00 0.00 0.00 0.00 0.00 0.00 0.00 0.00 0.00 0.00 0.00 0.00 0.00 0.00
0.02 0.02 0.01 0.01 0.01 0.01 0.01 0.01 0.01 0.00 0.00 0.00 0.00 0.00 0.00 0.00 0.00 0.00 0.00 0.00 0.00 0.00 0.00 0.00 0.00 0.00 0.00 0.00 0.00 0.00 0.00 0.00 0.00 0.00 0.00 0.00 0.00 0.00
0.00 0.00 0.01 0.00 0.00 0.00 0.00 0.00 0.00 0.00 0.00 0.00 0.00 0.00 0.00 0.00 0.00 0.00 0.00 0.00 0.00 0.00 0.00 0.00 0.00 0.00 0.00 0.00 0.00 0.00 0.00 0.00 0.00 0.00 0.00 0.00 0.00 0.00
0.00 0.00 0.00 0.00 0.00 0.00 0.00 0.00 0.00 0.00 0.00 0.00 0.00 0.00 0.00 0.00 0.00 0.00 0.00 0.00 0.00 0.00 0.00 0.00 0.00 0.00 0.00 0.00 0.00 0.00 0.00 0.00 0.00 0.00 0.00 0.00 0.00 0.00
0.00 0.00 0.00 0.00 0.00 0.00 0.00 0.00 0.00 0.00 0.00 0.00 0.00 0.00 0.00 0.00 0.00 0.00 0.00 0.00 0.00 0.00 0.00 0.00 0.00 0.00 0.00 0.00 0.00 0.00 0.00 0.00 0.00 0.00 0.00 0.00 0.00 0.00
0.00 0.00 0.00 0.00 0.00 0.00 0.00 0.00 0.00 0.00 0.00 0.00 0.00 0.00 0.00 0.00 0.00 0.00 0.00 0.00 0.00 0.00 0.00 0.00 0.00 0.00 0.00 0.00 0.00 0.00 0.00 0.00 0.00 0.00 0.00 0.00 0.00 0.00
0.00 0.00 0.00 0.00 0.00 0.00 0.00 0.00 0.00 0.00 0.00 0.00 0.00 0.00 0.00 0.00 0.00 0.00 0.00 0.00 0.00 0.00 0.00 0.00 0.00 0.00 0.00 0.00 0.00 0.00 0.00 0.00 0.00 0.00 0.00 0.00 0.00 0.00
0.00 0.00 0.00 0.00 0.00 0.00 0.00 0.00 0.00 0.00 0.00 0.00 0.00 0.00 0.00 0.00 0.00 0.00 0.00 0.00 0.00 0.00 0.00 0.00 0.00 0.00 0.00 0.00 0.00 0.00 0.00 0.00 0.00 0.00 0.00 0.00 0.00 0.00
0.00 0.00 0.00 0.00 0.00 0.00 0.00 0.00 0.00 0.00 0.00 0.00 0.00 0.00 0.00 0.00 0.00 0.00 0.00 0.00 0.00 0.00 0.00 0.00 0.00 0.00 0.00 0.00 0.00 0.00 0.00 0.00 0.00 0.00 0.00 0.00 0.00 0.00
0.00 0.00 0.00 0.00 0.00 0.00 0.00 0.00 0.00 0.00 0.00 0.00 0.00 0.00 0.00 0.00 0.00 0.00 0.00 0.00 0.00 0.00 0.00 0.00 0.00 0.00 0.00 0.00 0.00 0.00 0.00 0.00 0.00 0.00 0.00 0.00 0.00 0.00
0.00 0.00 0.00 0.00 0.00 0.00 0.00 0.00 0.00 0.00 0.00 0.00 0.00 0.00 0.00 0.00 0.00 0.00 0.00 0.00 0.00 0.00 0.00 0.00 0.00 0.00 0.00 0.00 0.00 0.00 0.00 0.00 0.00 0.00 0.00 0.00 0.00 0.00
0.00 0.00 0.00 0.00 0.00 0.00 0.00 0.00 0.00 0.00 0.00 0.00 0.00 0.00 0.00 0.00 0.00 0.00 0.00 0.00 0.00 0.00 0.00 0.00 0.00 0.00 0.00 0.00 0.00 0.00 0.00 0.00 0.00 0.00 0.00 0.00 0.00 0.00
0.00 0.00 0.00 0.00 0.00 0.00 0.00 0.00 0.00 0.00 0.00 0.00 0.00 0.00 0.00 0.00 0.00 0.00 0.00 0.00 0.00 0.00 0.00 0.00 0.00 0.00 0.00 0.00 0.00 0.00 0.00 0.00 0.00 0.00 0.00 0.00 0.00 0.00
0.00 0.00 0.00 0.00 0.00 0.00 0.00 0.00 0.00 0.00 0.00 0.00 0.00 0.00 0.00 0.00 0.00 0.00 0.00 0.00 0.00 0.00 0.00 0.00 0.00 0.00 0.00 0.00 0.00 0.00 0.00 0.00 0.00 0.00 0.00 0.00 0.00 0.00
0.00 0.00 0.00 0.00 0.00 0.00 0.00 0.00 0.00 0.00 0.00 0.00 0.00 0.00 0.00 0.00 0.00 0.00 0.00 0.00 0.00 0.00 0.00 0.00 0.00 0.00 0.00 0.00 0.00 0.00 0.00 0.00 0.00 0.00 0.00 0.00 0.00 0.00
0.00 0.00 0.00 0.00 0.00 0.00 0.00 0.00 0.00 0.00 0.00 0.00 0.00 0.00 0.00 0.00 0.00 0.00 0.00 0.00 0.00 0.00 0.00 0.00 0.00 0.00 0.00 0.00 0.00 0.00 0.00 0.00 0.00 0.00 0.00 0.00 0.00 0.00
0.00 0.00 0.00 0.00 0.00 0.00 0.00 0.00 0.00 0.00 0.00 0.00 0.00 0.00 0.00 0.00 0.00 0.00 0.00 0.00 0.00 0.00 0.00 0.00 0.00 0.00 0.00 0.00 0.00 0.00 0.00 0.00 0.00 0.00 0.00 0.00 0.00 0.00
0.00 0.00 0.00 0.00 0.00 0.00 0.00 0.00 0.00 0.00 0.00 0.00 0.00 0.00 0.00 0.00 0.00 0.00 0.00 0.00 0.00 0.00 0.00 0.00 0.00 0.00 0.00 0.00 0.00 0.00 0.00 0.00 0.00 0.00 0.00 0.00 0.00 0.00
0.00 0.00 0.00 0.00 0.00 0.00 0.00 0.00 0.00 0.00 0.00 0.00 0.00 0.00 0.00 0.00 0.00 0.00 0.00 0.00 0.00 0.00 0.00 0.00 0.00 0.00 0.00 0.00 0.00 0.00 0.00 0.00 0.00 0.00 0.00 0.00 0.00 0.00
0.00 0.00 0.00 0.00 0.00 0.00 0.00 0.00 0.00 0.00 0.00 0.00 0.00 0.00 0.00 0.00 0.00 0.00 0.00 0.00 0.00 0.00 0.00 0.00 0.00 0.00 0.00 0.00 0.00 0.00 0.00 0.00 0.00 0.00 0.00 0.00 0.00 0.00
0.00 0.00 0.00 0.00 0.00 0.00 0.00 0.00 0.00 0.00 0.00 0.00 0.00 0.00 0.00 0.00 0.00 0.00 0.00 0.00 0.00 0.00 0.00 0.00 0.00 0.00 0.00 0.00 0.00 0.00 0.00 0.00 0.00 0.00 0.00 0.00 0.00 0.00
MSLP
1012.62 1013.17 1013.55 1014.27 1015.02 1015.67 1015.93 1016.19 1016.75 1018.32 1019.52 1020.03 1021.18 1020.85 1021.05 1021.08 1021.68 1021.85 1022.27 1022.47 1022.26 1022.05 1022.04 1021.87 1021.85 1022.14 1021.84 1021.69 1021.44 1021.29 1021.22 1021.25 1020.94 1020.59 1020.30 1020.06 1019.66 1019.34
1012.52 1013.06 1013.84 1014.73 1015.50 1016.11 1016.60 1016.87 1016.92 1017.74 1019.07 1019.95 1020.63 1021.23 1021.89 1021.90 1021.85 1021.97 1022.27 1022.53 1022.34 1022.30 1021.77 1021.43 1021.15 1021.29 1021.51 1021.22 1020.95 1020.60 1020.48 1020.46 1020.23 1019.95 1019.61 1019.31 1018.94 1018.63
1012.85 1013.33 1014.29 1015.05 1015.93 1016.52 1016.84 1017.24 1017.61 1017.83 1019.27 1020.50 1020.76 1021.32 1021.94 1021.97 1021.92 1022.05 1022.39 1021.98 1021.90 1021.65 1021.36 1021.04 1020.82 1020.41 1020.73 1020.56 1020.28 1020.11 1019.76 1019.82 1019.58 1019.34 1018.99 1018.68 1018.40 1018.27
1013.76 1014.31 1014.98 1015.62 1016.34 1016.81 1017.13 1017.70 1017.97 1018.32 1019.03 1019.30 1020.98 1020.63 1021.81 1022.13 1022.03 1021.61 1021.68 1021.17 1021.38 1021.09 1020.83 1020.66 1020.55 1020.42 1020.06 1019.79 1019.58 1019.41 1019.18 1019.17 1018.96 1018.68 1018.38 1018.15 1017.91 1017.75
1014.64 1015.24 1015.66 1016.01 1016.55 1017.05 1017.55 1018.05 1018.51 1019.09 1019.36 1019.89 1020.25 1021.20 1021.83 1021.78 1021.70 1021.15 1021.06 1020.86 1020.59 1020.49 1020.24 1019.93 1019.57 1019.50 1019.31 1019.18 1019.01 1018.75 1018.57 1018.48 1018.38 1018.15 1017.97 1017.77 1017.56 1017.31
1015.41 1015.78 1016.38 1016.64 1017.04 1017.50 1017.96 1018.46 1019.00 1019.25 1019.88 1020.02 1020.55 1020.81 1021.04 1020.87 1021.06 1020.96 1020.71 1020.45 1020.16 1019.99 1019.79 1019.68 1019.25 1018.83 1018.67 1018.44 1018.17 1018.03 1017.96 1017.87 1017.78 1017.59 1017.39 1017.17 1016.97 1016.78
1016.72 1016.64 1017.09 1017.38 1017.65 1017.86 1018.42 1018.57 1019.26 1019.28 1019.83 1020.24 1020.01 1020.14 1020.25 1020.18 1020.21 1020.14 1020.25 1020.12 1019.91 1019.77 1019.49 1019.33 1018.83 1018.52 1018.24 1017.83 1017.52 1017.32 1017.10 1016.97 1016.88 1016.72 1016.51 1016.28 1016.06 1015.89
1017.59 1017.64 1017.79 1018.05 1018.23 1018.31 1018.72 1018.85 1019.14 1019.32 1019.54 1019.39 1019.64 1019.83 1019.80 1019.93 1019.63 1020.03 1020.19 1020.16 1019.94 1019.45 1019.43 1019.03 1018.59 1018.04 1017.66 1017.24 1016.89 1016.56 1016.42 1016.27 1016.13 1015.96 1015.76 1015.50 1015.24 1015.01
1018.22 1018.34 1018.41 1018.59 1018.79 1018.88 1018.88 1018.89 1019.03 1019.38 1019.46 1019.45 1019.69 1019.65 1019.42 1019.47 1019.89 1020.01 1020.26 1020.10 1019.98 1019.70 1019.53 1018.27 1017.98 1017.58 1017.05 1016.52 1016.19 1015.94 1015.74 1015.50 1015.29 1015.08 1014.84 1014.64 1014.37 1014.11
1018.70 1018.64 1018.61 1018.90 1018.95 1019.04 1018.80 1019.08 1019.43 1019.31 1019.25 1019.42 1019.53 1019.41 1019.35 1019.45 1019.54 1019.66 1019.72 1019.78 1019.49 1019.11 1018.77 1018.06 1017.55 1017.19 1016.57 1016.01 1015.64 1015.35 1015.08 1014.81 1014.48 1014.26 1014.05 1013.80 1013.48 1013.20
1018.82 1018.89 1019.00 1018.99 1019.25 1019.12 1018.95 1019.08 1019.10 1018.89 1018.92 1019.35 1019.39 1019.47 1019.48 1019.46 1019.50 1019.64 1019.71 1019.77 1019.20 1018.79 1018.48 1018.36 1017.51 1017.11 1016.45 1015.60 1015.15 1014.71 1014.30 1014.03 1013.70 1013.49 1013.17 1012.89 1012.67 1012.40
1018.99 1019.14 1019.36 1019.34 1019.19 1019.11 1019.07 1018.95 1019.00 1019.12 1019.13 1019.14 1019.09 1019.00 1019.04 1019.18 1019.12 1019.38 1019.49 1019.41 1019.44 1019.03 1018.13 1018.31 1017.72 1017.69 1016.42 1014.90 1014.73 1014.55 1014.40 1013.64 1013.14 1012.74 1012.43 1012.13 1011.89 1011.64
1019.39 1019.40 1019.45 1019.52 1019.45 1019.49 1019.44 1019.34 1019.20 1019.28 1019.23 1018.99 1019.06 1018.97 1018.89 1018.88 1018.90 1018.82 1018.86 1019.06 1019.28 1019.10 1018.42 1018.57 1017.79 1017.70 1017.46 1015.85 1014.56 1014.36 1014.08 1013.32 1012.72 1012.19 1011.76 1011.45 1011.20 1010.96
1019.42 1019.46 1019.52 1019.75 1019.71 1019.62 1019.53 1019.38 1019.44 1019.39 1019.25 1019.10 1019.00 1018.93 1018.88 1018.87 1018.85 1018.75 1018.82 1018.86 1018.82 1018.54 1018.25 1018.49 1017.97 1017.59 1017.06 1016.12 1015.08 1013.97 1013.59 1013.02 1012.52 1011.80 1011.32 1010.90 1010.52 1010.20
1019.80 1019.91 1019.85 1019.77 1019.68 1019.57 1019.47 1019.51 1019.47 1019.29 1019.14 1019.04 1018.95 1018.86 1018.84 1018.89 1018.87 1018.85 1018.61 1018.32 1018.13 1017.87 1017.54 1017.39 1017.33 1016.90 1016.64 1015.81 1014.90 1013.98 1013.33 1012.18 1011.93 1011.28 1010.86 1010.38 1009.93 1009.54
1019.83 1019.73 1019.82 1019.80 1019.65 1019.61 1019.47 1019.30 1019.28 1019.25 1019.19 1019.17 1019.05 1018.91 1018.86 1018.76 1018.47 1018.24 1017.98 1017.76 1017.40 1016.84 1016.61 1016.18 1016.01 1015.92 1015.42 1014.90 1014.41 1013.10 1012.68 1012.22 1011.14 1010.58 1010.12 1009.47 1008.89 1008.32
1020.17 1019.84 1019.66 1019.50 1019.42 1019.23 1019.14 1019.13 1019.15 1019.18 1019.17 1019.05 1019.02 1018.88 1018.68 1018.43 1018.08 1017.88 1017.60 1017.33 1017.02 1016.35 1015.65 1015.35 1015.05 1014.72 1014.36 1013.89 1012.94 1012.00 1011.17 1010.59 1010.16 1009.59 1009.11 1008.09 1007.53 1007.07
1020.21 1019.82 1019.62 1019.50 1019.41 1019.29 1019.15 1019.04 1019.01 1019.01 1019.02 1019.01 1019.04 1018.89 1018.60 1018.28 1017.94 1017.71 1017.45 1017.01 1016.36 1015.72 1015.17 1014.58 1014.13 1013.62 1012.88 1012.00 1011.53 1010.42 1009.91 1009.28 1008.56 1008.11 1007.72 1006.96 1005.87 1005.57
1020.19 1019.90 1019.81 1019.69 1019.57 1019.50 1019.44 1019.33 1019.20 1019.11 1019.08 1019.15 1018.96 1018.60 1018.31 1017.98 1017.66 1017.32 1016.92 1016.41 1015.66 1015.04 1014.28 1013.84 1013.37 1012.83 1011.75 1010.48 1009.66 1009.33 1008.62 1008.31 1007.65 1007.08 1006.63 1006.08 1005.03 1004.13
1020.21 1020.13 1019.94 1019.76 1019.65 1019.55 1019.49 1019.45 1019.31 1019.10 1018.89 1018.67 1018.45 1018.18 1017.81 1017.44 1017.03 1016.66 1016.28 1015.77 1015.10 1014.36 1013.62 1013.02 1012.42 1011.81 1011.13 1009.91 1008.71 1008.07 1008.12 1007.36 1006.86 1006.04 1005.26 1004.50 1003.76 1003.13
1020.10 1019.98 1019.81 1019.64 1019.50 1019.32 1019.20 1019.12 1019.06 1018.83 1018.52 1018.20 1017.92 1017.65 1017.30 1016.92 1016.36 1015.97 1015.55 1015.00 1014.35 1013.64 1012.80 1012.03 1011.37 1010.93 1010.16 1009.37 1008.10 1006.83 1006.20 1005.92 1005.50 1004.93 1004.15 1003.51 1002.46 1001.86
1019.94 1019.81 1019.59 1019.41 1019.25 1019.17 1018.97 1018.84 1018.69 1018.47 1018.12 1017.76 1017.38 1017.00 1016.58 1016.21 1015.69 1015.19 1014.74 1014.22 1013.65 1012.97 1012.05 1011.22 1010.45 1009.77 1009.07 1008.21 1006.71 1005.54 1004.54 1004.10 1003.79 1003.29 1002.94 1002.68 1002.22 1000.62
1019.68 1019.51 1019.30 1019.16 1018.95 1018.86 1018.76 1018.53 1018.25 1017.92 1017.57 1017.24 1016.80 1016.33 1015.93 1015.41 1014.91 1014.35 1013.83 1013.30 1012.72 1012.02 1011.23 1010.10 1009.26 1008.45 1007.47 1006.71 1005.66 1004.44 1003.56 1002.69 1002.17 1001.70 1001.27 1000.90 1000.38 999.88
Thickness
5584 5581 5581 5578 5574 5569 5567 5567 5564 5552 5541 5536 5522 5519 5519 5519 5514 5510 5505 5501 5500 5499 5496 5495 5493 5488 5489 5489 5488 5487 5485 5484 5485 5487 5488 5489 5491 5493
5570 5568 5563 5560 5556 5552 5551 5548 5547 5542 5535 5523 5514 5506 5500 5499 5499 5496 5489 5484 5485 5480 5480 5481 5480 5477 5474 5475 5474 5474 5472 5471 5471 5470 5471 5473 5474 5475
5551 5551 5545 5543 5539 5537 5536 5534 5531 5530 5521 5505 5500 5493 5485 5483 5481 5478 5471 5471 5471 5467 5466 5465 5463 5465 5461 5460 5459 5458 5458 5454 5453 5453 5454 5454 5454 5453
5529 5527 5525 5524 5521 5520 5520 5516 5514 5511 5506 5503 5481 5483 5468 5465 5464 5463 5458 5460 5455 5453 5450 5450 5448 5446 5446 5444 5443 5442 5442 5440 5438 5438 5438 5437 5435 5432
5507 5507 5508 5508 5506 5505 5502 5498 5494 5489 5485 5479 5473 5462 5454 5452 5450 5449 5445 5443 5441 5439 5436 5434 5434 5431 5430 5429 5428 5427 5426 5423 5419 5418 5416 5414 5411 5408
5488 5491 5491 5492 5491 5489 5486 5482 5477 5473 5467 5462 5456 5451 5446 5444 5438 5434 5431 5429 5427 5421 5420 5417 5417 5416 5414 5412 5410 5407 5404 5401 5398 5395 5391 5387 5383 5378
5469 5474 5474 5476 5476 5476 5471 5469 5462 5460 5453 5448 5447 5443 5437 5433 5429 5424 5419 5414 5410 5405 5404 5399 5400 5398 5395 5392 5389 5386 5383 5380 5376 5373 5368 5365 5360 5356
5455 5460 5462 5462 5462 5462 5457 5455 5451 5448 5443 5441 5436 5429 5425 5418 5416 5407 5399 5394 5389 5387 5386 5378 5381 5379 5374 5370 5367 5365 5364 5361 5359 5356 5353 5349 5346 5344
5444 5447 5449 5449 5448 5447 5445 5443 5441 5435 5430 5427 5420 5415 5413 5406 5397 5388 5379 5374 5367 5365 5364 5361 5362 5359 5357 5353 5352 5353 5352 5350 5347 5345 5343 5341 5339 5337
5436 5439 5441 5439 5438 5437 5436 5431 5425 5423 5419 5414 5408 5402 5396 5389 5381 5372 5364 5357 5352 5350 5352 5350 5349 5348 5346 5342 5341 5341 5341 5340 5340 5338 5336 5334 5332 5330
5433 5433 5432 5431 5427 5426 5425 5421 5417 5414 5409 5399 5392 5385 5377 5370 5362 5353 5346 5339 5337 5337 5338 5334 5336 5339 5336 5332 5331 5332 5333 5333 5334 5332 5330 5327 5325 5322
5427 5425 5422 5420 5420 5418 5415 5412 5406 5399 5393 5386 5380 5372 5363 5354 5346 5338 5332 5328 5326 5322 5330 5321 5322 5321 5329 5326 5322 5319 5319 5321 5323 5322 5320 5319 5316 5315
5419 5418 5416 5413 5411 5407 5402 5397 5393 5385 5378 5372 5363 5354 5346 5339 5334 5331 5327 5321 5315 5311 5315 5312 5311 5308 5306 5316 5315 5309 5309 5312 5314 5314 5313 5311 5310 5309
5416 5413 5409 5403 5399 5394 5389 5384 5376 5369 5360 5352 5344 5337 5333 5328 5325 5322 5317 5312 5307 5306 5304 5301 5302 5300 5299 5301 5302 5304 5303 5304 5304 5308 5307 5305 5304 5304
5405 5400 5397 5393 5389 5384 5378 5370 5361 5353 5344 5336 5331 5328 5324 5319 5315 5311 5308 5306 5302 5300 5299 5297 5295 5294 5290 5290 5292 5294 5296 5302 5297 5300 5301 5301 5299 5298
5398 5394 5388 5383 5378 5371 5364 5357 5347 5337 5329 5324 5321 5318 5314 5310 5308 5305 5302 5300 5298 5297 5294 5294 5292 5289 5288 5285 5283 5290 5290 5291 5297 5296 5298 5299 5298 5296
5386 5384 5380 5375 5369 5362 5354 5343 5332 5324 5320 5317 5313 5309 5305 5302 5299 5297 5295 5293 5291 5291 5292 5289 5287 5286 5286 5284 5287 5288 5293 5295 5295 5296 5295 5301 5299 5296
5377 5375 5370 5364 5357 5349 5339 5329 5322 5318 5313 5309 5303 5299 5296 5293 5291 5288 5286 5285 5287 5287 5287 5286 5286 5286 5288 5291 5285 5291 5290 5293 5296 5297 5294 5299 5304 5297
5368 5364 5357 5351 5343 5333 5322 5315 5312 5309 5305 5300 5296 5293 5290 5287 5285 5282 5280 5280 5282 5283 5285 5283 5282 5281 5288 5294 5295 5287 5290 5290 5294 5294 5292 5294 5298 5298
5357 5351 5345 5338 5329 5319 5310 5305 5303 5301 5299 5296 5292 5289 5286 5284 5281 5279 5276 5275 5277 5279 5281 5279 5279 5279 5280 5286 5293 5292 5279 5285 5286 5291 5292 5295 5296 5296
5348 5342 5335 5327 5318 5309 5303 5300 5296 5294 5293 5291 5288 5285 5282 5280 5279 5276 5273 5273 5274 5274 5277 5278 5277 5276 5278 5280 5286 5292 5289 5283 5284 5288 5292 5292 5298 5298
5340 5333 5325 5317 5308 5300 5297 5294 5291 5289 5288 5286 5284 5282 5280 5277 5276 5274 5271 5269 5268 5269 5271 5273 5274 5275 5275 5277 5287 5293 5297 5292 5288 5288 5285 5282 5281 5297
5331 5324 5317 5307 5299 5293 5289 5287 5285 5283 5282 5280 5279 5278 5276 5274 5272 5271 5269 5267 5265 5266 5266 5270 5273 5274 5278 5279 5284 5292 5295 5297 5296 5296 5292 5285 5287 5288